Location: Quedlinburg
(51.7921°N, 11.1414°E)
Time: 17:55:03
(UTC+02:00)

SEEDS - Pass Details

Date: 19 March 2026
Orbit: 471 x 477 km, 97.8° (Epoch: 18 April)

Event Time Altitude Azimuth Distance (km) Brightness Sun altitude
Rises 05:04:44 0° 23° (NNE) 2,552 ? -12.5°
Reaches altitude 10° 05:07:02 10° 35° (NE) 1,665 ? -12.1°
Maximum altitude 05:10:08 27° 96° (E) 948 ? -11.6°
Drops below altitude 10° 05:13:12 10° 156° (SSE) 1,647 ? -11.2°
Sets 05:15:27 0° 169° (SSE) 2,517 ? -10.8°
